Location: Crescent
(42.8242°N, 73.7329°W)
Time: 08:55:07
(UTC+00:00)

ARIANE 6 FM1 Upper Stage - Visible Passes

Search period start: 20 January 2026 00:00
Search period end: 30 January 2026 00:00
Orbit: 522 x 610 km, 62.0° (Epoch: 19 January)

Date Brightness Start Highest point End Pass type
(mag) Time Alt. Az. Time Alt. Az. Time Alt. Az.
20 Jan 3.4 23:58:10 10° SSW 00:01:02 40° S 00:01:02 40° S visible
21 Jan 2.6 23:58:13 10° SW 00:01:59 75° SSW 00:01:59 75° SSW visible
22 Jan 2.8 23:58:26 10° SW 00:02:29 64° NW 00:02:50 60° NNW visible
23 Jan 3.5 23:58:47 10° WSW 00:02:41 43° NW 00:03:36 37° N visible
24 Jan 4.1 23:59:17 10° WSW 00:02:56 31° NW 00:04:15 25° N visible
25 Jan 3.1 22:20:06 10° SSW 22:24:01 44° ESE 22:27:51 10° NE visible
25 Jan 4.6 23:59:55 10° W 00:03:11 23° NW 00:04:50 18° N visible
27 Jan 4.9 00:00:42 10° W 00:03:30 18° NW 00:05:20 14° N visible
28 Jan 5.1 00:01:42 10° WNW 00:03:49 14° NNW 00:05:46 11° N visible
29 Jan 5.3 00:03:09 10° NW 00:04:12 11° NNW 00:05:16 10° NNW visible
